{"data":{"norad_id":53219,"epoch":"2026-09-20T03:28:24.088800Z","epoch_age_seconds":102984,"freshness":"FRESH","line1":"1 53219U 22084AG  26263.14472325  .00000363  00000+0  13574-4 0  9998","line2":"2 53219  97.2841 318.7956 0001427  92.1640 267.9766 15.33436312228699","mean_motion":15.33436312,"eccentricity":0.0001427,"inclination_deg":97.2841,"raan_deg":318.7956,"arg_perigee_deg":92.164,"mean_anomaly_deg":267.9766,"bstar":1.3574e-5,"rev_number":22869,"period_min":93.906736701824,"perigee_km":464.59242712603,"apogee_km":466.54562082527,"semimajor_km":6843.7060239756,"source":"CELESTRAK","updated_at":"2026-09-20T09:00:40.194456Z"}}